Volver al catálogo

STARLINK-11234

ActivoComunicacionesVLEO
NORAD 60400·PAYLOAD·🇺🇸 United States

Lanzado Aug 10, 2024 desde Cape Canaveral Space Force Station

Loading…

Próximos Pases (próximas 24 horas)

TLE

ActualizadoSource: CelesTrak SupGP

Época: Sep 14, 2026, 21:28 UTC

1 60400C 24141C   26257.89493056  .00067335  00000+0  55457-3 0  2577
2 60400  53.1570 233.3346 0001207  94.0138 229.5617 15.69679736    14

Sigue STARLINK-11234 en tiempo real con AllMySat

Download on the App Store